Holbrook, NY

12:13 PM EST on February 19, 2017 (GMT -0500)
Long Island Mac Arthur

Weather History for KISP - October, 2011

Change the Weather History Date:

Saturday, October 1, 2011

  Actual Average Record
Temperature  
Mean Temperature 65 °F 60 °F  
Max Temperature 72 °F 68 °F 83 °F (1986)
Min Temperature 57 °F 51 °F 37 °F (1992)
Degree Days  
Heating Degree Days 0 6  
Month to date heating degree days 0 6  
Since 1 July heating degree days 24 83  
Cooling Degree Days 0 1  
Month to date cooling degree days 0 1  
Year to date cooling degree days 1070 778  
Growing Degree Days 14 (Base 50)    
Moisture  
Dew Point 56 °F    
Average Humidity 78    
Maximum Humidity 90    
Minimum Humidity 66    
Precipitation  
Precipitation 0.11 in 0.13 in 0.78 in (1984)
Month to date precipitation 0.11 0.13  
Year to date precipitation 40.57 34.85  
Snow  
Snow 0.00 in 0.00 in - ()
Month to date snowfall 0.0 0.0  
Since 1 July snowfall 0.0 0.0  
Snow Depth 0.00 in    
Sea Level Pressure  
Sea Level Pressure 29.63 in    
Wind  
Wind Speed 10 mph (NNW)    
Max Wind Speed 17 mph    
Max Gust Speed 21 mph    
Visibility 10 miles    
Events Rain    
T = Trace of Precipitation, MM = Missing Value Source: NWS Daily Summary

Daily Weather History Graph

Daily Weather History Graph

Search for Another Location

Airport or City:

Trip Planner

Search our weather history database for the weather conditions in past years. The results will help you decide how hot, cold, wet, or windy it might be!

Date:

Astronomy

Oct. 01, 2011 Rise Set
Actual Time 6:48 AM EDT 6:34 PM EDT
Civil Twilight 6:21 AM EDT 7:02 PM EDT
Nautical Twilight 5:49 AM EDT 7:33 PM EDT
Astronomical Twilight 5:17 AM EDT 8:05 PM EDT
Moon 11:53 AM EDT (10/1) 9:27 PM EDT (10/1)
Length of Visible Light 12h 40m
Length of Day
11h 46m
Waxing Crescent, 24% of the Moon is Illuminated
Oct 1
Waxing Crescent
Oct 3
First Quarter
Oct 11
Full
Oct 19
Last Quarter
Oct 26
New

Hourly Weather History & Observations

Time (EDT) Temp. Dew Point Humidity Pressure Visibility Wind Dir Wind Speed Gust Speed Precip Events Conditions
12:56 AM 64.9 °F 53.1 °F 65% 29.65 in 10.0 mi NW 15.0 mph - N/A   Overcast
1:56 AM 62.6 °F 51.8 °F 68% 29.64 in 10.0 mi NW 13.8 mph - N/A   Overcast
2:56 AM 62.1 °F 54.0 °F 75% 29.63 in 10.0 mi NNW 10.4 mph - 0.00 in Rain Light Rain
3:56 AM 60.1 °F 55.9 °F 86% 29.60 in 9.0 mi North 9.2 mph - 0.04 in Rain Light Rain
4:56 AM 60.1 °F 57.0 °F 90% 29.57 in 10.0 mi North 8.1 mph - 0.03 in   Overcast
5:56 AM 61.0 °F 57.9 °F 90% 29.56 in 8.0 mi North 6.9 mph - 0.00 in Rain Light Rain
6:56 AM 62.1 °F 59.0 °F 90% 29.59 in 10.0 mi NW 6.9 mph - 0.03 in Rain Light Rain
7:56 AM 62.1 °F 59.0 °F 90% 29.58 in 10.0 mi North 10.4 mph - 0.01 in   Mostly Cloudy
8:56 AM 63.0 °F 59.0 °F 87% 29.59 in 10.0 mi North 9.2 mph - N/A   Mostly Cloudy
9:56 AM 64.9 °F 60.1 °F 84% 29.60 in 10.0 mi NW 12.7 mph - N/A   Mostly Cloudy
10:19 AM 66.2 °F 59.0 °F 78% 29.60 in 10.0 mi NNW 12.7 mph - N/A   Scattered Clouds
10:56 AM 66.9 °F 59.0 °F 76% 29.62 in 10.0 mi NNW 10.4 mph - N/A   Mostly Cloudy
11:56 AM 69.1 °F 59.0 °F 70% 29.62 in 10.0 mi NNW 10.4 mph - N/A   Mostly Cloudy
12:56 PM 70.0 °F 57.9 °F 65% 29.61 in 10.0 mi North 9.2 mph - N/A   Mostly Cloudy
1:56 PM 69.1 °F 57.9 °F 68% 29.61 in 10.0 mi NW 6.9 mph - N/A   Mostly Cloudy
2:56 PM 71.1 °F 59.0 °F 66% 29.62 in 10.0 mi NNW 10.4 mph - N/A   Mostly Cloudy
3:56 PM 68.0 °F 57.9 °F 70% 29.63 in 10.0 mi NW 9.2 mph - N/A   Mostly Cloudy
5:56 PM 64.9 °F 57.0 °F 75% 29.66 in 10.0 mi NW 10.4 mph - N/A   Mostly Cloudy
6:56 PM 63.0 °F 54.0 °F 72% 29.67 in 10.0 mi NNW 12.7 mph - 0.00 in Rain Light Rain
7:56 PM 60.1 °F 53.1 °F 78% 29.70 in 10.0 mi NNW 13.8 mph - 0.00 in   Mostly Cloudy
8:56 PM 57.0 °F 51.1 °F 81% 29.71 in 10.0 mi North 10.4 mph - N/A   Mostly Cloudy
9:56 PM 57.0 °F 51.1 °F 81% 29.72 in 10.0 mi North 10.4 mph - N/A   Mostly Cloudy
10:56 PM 57.0 °F 51.1 °F 81% 29.72 in 10.0 mi North 10.4 mph - N/A   Mostly Cloudy
11:56 PM 57.0 °F 51.1 °F 81% 29.71 in 10.0 mi NNE 12.7 mph - N/A   Mostly Cloudy